Location: Kershaw
(34.5481°N, 80.5823°W)
Time: 15:04:16
(UTC+00:00)

Vanguard 1 Rocket - Pass Details

Date: 05 October 2022
Orbit: 650 x 4225 km, 34.3° (Epoch: 08 December)

Event Time Altitude Azimuth Distance (km) Brightness Sun altitude
Rises 00:13:23 0° 241° (WSW) 8,455 13.3 -15.5°
Reaches altitude 10° 00:19:32 10° 240° (WSW) 7,306 12.8 -16.7°
Maximum altitude 00:43:13 73° 161° (SSE) 3,029 9.8 -21.6°
Enters shadow 00:51:46 31° 85° (E) 3,431 9.7 -23.3°
Drops below altitude 10° 00:56:00 10° 80° (E) 4,299 - -24.2°
Sets 00:58:36 0° 78° (ENE) 4,955 - -24.7°
